W0DXV Weather Reports


Display with metric or nautical units.
time (UTC)temp
F
wind
direction
speed
MPH
gust
MPH
rain 1hr
in
rain 24hr
in
rain mn
in
humidity
%
barometer
mb
20260903212742 93 192 1.0 1.0 0.00 0.00 0.00 61 1011.6
20260903212238 93 258 0.0 1.0 0.00 0.00 0.00 58 1011.6
20260903211731 93 219 0.0 0.0 0.00 0.00 0.00 57 1011.9
20260903211228 95 226 1.0 1.0 0.00 0.00 0.00 54 1011.8
20260903210724 95 252 0.0 1.0 0.00 0.00 0.00 54 1011.9
20260903210219 96 230 0.0 0.0 0.00 0.00 0.00 52 1012.0
20260903205718 97 234 0.0 0.0 0.00 0.00 0.00 54 1012.0
20260903205217 96 231 0.0 1.0 0.00 0.00 0.00 54 1012.2
20260903204713 99 202 1.0 1.0 0.00 0.00 0.00 51 1011.7
20260903204210 98 242 0.0 0.0 0.00 0.00 0.00 51 1012.1
20260903203705 98 251 1.0 1.0 0.00 0.00 0.00 48 1012.0
20260903203201 99 249 1.0 1.0 0.00 0.00 0.00 46 1012.2
20260903202654 99 214 0.0 0.0 0.00 0.00 0.00 48 1012.2
20260903202150 99 213 0.0 1.0 0.00 0.00 0.00 52 1012.3
20260903201649 98 249 0.0 1.0 0.00 0.00 0.00 53 1012.2
20260903201144 98 227 1.0 1.0 0.00 0.00 0.00 51 1012.3
20260903200639 98 215 1.0 1.0 0.00 0.00 0.00 54 1012.3
20260903200134 99 190 1.0 1.0 0.00 0.00 0.00 49 1012.3
20260903195630 99 208 1.0 1.0 0.00 0.00 0.00 50 1012.3
20260903195126 98 212 1.0 1.0 0.00 0.00 0.00 50 1012.6
20260903194620 100 207 1.0 1.0 0.00 0.00 0.00 49 1012.6
20260903194120 99 226 1.0 1.0 0.00 0.00 0.00 46 1012.9
20260903193617 99 205 0.0 1.0 0.00 0.00 0.00 47 1012.9
20260903193112 99 214 0.0 1.0 0.00 0.00 0.00 51 1012.8
20260903192609 98 229 1.0 1.0 0.00 0.00 0.00 53 1013.0
20260903192108 99 239 0.0 0.0 0.00 0.00 0.00 45 1012.8
20260903191605 99 201 1.0 1.0 0.00 0.00 0.00 49 1012.9
20260903191100 98 219 0.0 0.0 0.00 0.00 0.00 50 1012.9
20260903190559 99 293 1.0 1.0 0.00 0.00 0.00 48 1012.9
20260903190059 97 229 1.0 2.0 0.00 0.00 0.00 47 1012.9
20260903185554 98 250 1.0 2.0 0.00 0.00 0.00 46 1013.0
20260903185049 98 203 1.0 1.0 0.00 0.00 0.00 46 1013.1
20260903184545 97 337 1.0 1.0 0.00 0.00 0.00 47 1013.1
20260903184041 98 239 1.0 1.0 0.00 0.00 0.00 47 1013.3
20260903183539 99 6 1.0 1.0 0.00 0.00 0.00 48 1013.6
20260903183035 99 241 1.0 1.0 0.00 0.00 0.00 49 1013.4
20260903182533 99 216 1.0 1.0 0.00 0.00 0.00 48 1013.6
20260903182030 99 243 2.0 2.0 0.00 0.00 0.00 49 1013.6
20260903181528 98 347 1.0 2.0 0.00 0.00 0.00 48 1013.7
20260903181023 98 200 1.0 1.0 0.00 0.00 0.00 53 1013.7
20260903180519 97 268 1.0 2.0 0.00 0.00 0.00 52 1013.6
20260903180018 95 186 1.0 2.0 0.00 0.00 0.00 54 1013.6
20260903175517 98 268 2.0 3.0 0.00 0.00 0.00 53 1013.8
20260903175017 96 227 1.0 1.0 0.00 0.00 0.00 52 1013.7
20260903174512 96 238 1.0 1.0 0.00 0.00 0.00 54 1013.7
20260903174011 97 195 1.0 1.0 0.00 0.00 0.00 55 1013.8
20260903173506 97 260 1.0 1.0 0.00 0.00 0.00 54 1014.2
20260903173002 96 234 0.0 1.0 0.00 0.00 0.00 55 1014.0
20260903172457 94 219 1.0 1.0 0.00 0.00 0.00 59 1013.9
20260903171953 94 233 2.0 2.0 0.00 0.00 0.00 57 1014.2
20260903171448 96 92 1.0 2.0 0.00 0.00 0.00 56 1014.2
20260903170943 96 197 1.0 1.0 0.00 0.00 0.00 57 1014.1
20260903170437 97 215 1.0 1.0 0.00 0.00 0.00 56 1014.4
20260903165937 96 141 1.0 2.0 0.00 0.00 0.00 56 1014.4
20260903165431 96 29 2.0 2.0 0.00 0.00 0.00 56 1014.6
20260903164930 94 204 1.0 2.0 0.00 0.00 0.00 57 1014.6
20260903164425 94 175 1.0 1.0 0.00 0.00 0.00 65 1014.6
20260903163919 96 254 0.0 1.0 0.00 0.00 0.00 61 1014.6
20260903163416 95 218 1.0 1.0 0.00 0.00 0.00 57 1014.9
20260903162911 94 219 0.0 1.0 0.00 0.00 0.00 57 1014.7
20260903162408 95 162 1.0 1.0 0.00 0.00 0.00 56 1014.7
20260903161903 94 213 1.0 1.0 0.00 0.00 0.00 58 1014.9
20260903161358 95 224 1.0 1.0 0.00 0.00 0.00 60 1014.8
20260903160854 94 265 1.0 2.0 0.00 0.00 0.00 58 1014.7
20260903160353 93 233 1.0 1.0 0.00 0.00 0.00 64 1015.0
20260903155851 91 305 1.0 1.0 0.00 0.00 0.00 65 1014.9
20260903155347 92 148 1.0 1.0 0.00 0.00 0.00 67 1015.0
20260903154842 92 240 0.0 0.0 0.00 0.00 0.00 61 1014.8
20260903154338 90 249 1.0 1.0 0.00 0.00 0.00 64 1015.0
20260903153834 90 270 3.0 3.0 0.00 0.00 0.00 65 1015.1
20260903153329 90 250 1.0 2.0 0.00 0.00 0.00 65 1015.0
20260903152826 92 270 1.0 1.0 0.00 0.00 0.00 62 1015.3
20260903152322 92 237 0.0 1.0 0.00 0.00 0.00 64 1015.1
20260903151816 91 266 0.0 1.0 0.00 0.00 0.00 65 1015.3
20260903151311 90 286 1.0 1.0 0.00 0.00 0.00 64 1015.2
20260903150806 91 229 1.0 1.0 0.00 0.00 0.00 63 1015.2
20260903150306 90 282 1.0 2.0 0.00 0.00 0.00 65 1015.0
20260903145801 89 273 1.0 1.0 0.00 0.00 0.00 67 1015.0
20260903145256 90 257 3.0 3.0 0.00 0.00 0.00 66 1015.1
20260903144754 88 237 0.0 1.0 0.00 0.00 0.00 72 1015.0
20260903144250 88 252 0.0 1.0 0.00 0.00 0.00 70 1015.0
20260903143746 87 254 1.0 1.0 0.00 0.00 0.00 72 1015.0
20260903143243 87 275 2.0 2.0 0.00 0.00 0.00 72 1015.2
20260903142738 86 265 2.0 2.0 0.00 0.00 0.00 74 1014.9
20260903142234 87 249 0.0 1.0 0.00 0.00 0.00 74 1015.1
20260903141729 85 281 1.0 1.0 0.00 0.00 0.00 75 1015.3
20260903141225 84 262 2.0 2.0 0.00 0.00 0.00 77 1015.3
20260903140714 83 246 1.0 1.0 0.00 0.00 0.00 80 1015.1
20260903140209 83 262 3.0 3.0 0.00 0.00 0.00 81 1015.3
20260903135705 83 223 1.0 1.0 0.00 0.00 0.00 82 1015.2
20260903135200 82 233 0.0 0.0 0.00 0.00 0.00 84 1015.3
20260903134659 81 216 1.0 1.0 0.00 0.00 0.00 84 1015.0
20260903134155 81 259 2.0 2.0 0.00 0.00 0.00 83 1015.1
20260903133653 81 225 0.0 0.0 0.00 0.00 0.00 84 1015.2
20260903133149 81 237 0.0 0.0 0.00 0.00 0.00 84 1015.3
20260903132648 81 253 1.0 1.0 0.00 0.00 0.00 84 1015.3
20260903132143 80 247 1.0 1.0 0.00 0.00 0.00 85 1015.3
20260903131638 80 210 1.0 2.0 0.00 0.00 0.00 86 1015.4
20260903131136 80 224 1.0 1.0 0.00 0.00 0.00 86 1015.1
20260903130632 80 236 0.0 0.0 0.00 0.00 0.00 86 1015.3
20260903130126 80 209 0.0 0.0 0.00 0.00 0.00 86 1015.3
20260903125624 81 209 0.0 0.0 0.00 0.00 0.00 85 1015.1
20260903125120 82 200 0.0 0.0 0.00 0.00 0.00 82 1015.2
20260903124619 80 200 0.0 0.0 0.00 0.00 0.00 85 1015.3
20260903124114 79 200 0.0 0.0 0.00 0.00 0.00 87 1015.2
20260903123614 79 200 0.0 0.0 0.00 0.00 0.00 86 1015.0
20260903123112 80 200 0.0 0.0 0.00 0.00 0.00 84 1014.7
20260903122606 79 200 0.0 0.0 0.00 0.00 0.00 84 1014.9
20260903122101 79 200 0.0 0.0 0.00 0.00 0.00 86 1015.0
20260903121555 77 200 0.0 0.0 0.00 0.00 0.00 88 1014.9
20260903121051 75 200 0.0 0.0 0.00 0.00 0.00 95 1015.0
20260903120550 74 200 0.0 0.0 0.00 0.00 0.00 97 1015.0
20260903120045 74 200 0.0 0.0 0.00 0.00 0.00 99 1015.1
20260903115543 73 200 0.0 0.0 0.00 0.00 0.00 99 1015.0
20260903115038 72 200 0.0 0.0 0.00 0.00 0.00 99 1015.0
20260903114533 71 200 0.0 0.0 0.00 0.00 0.00 99 1014.9
20260903114029 72 200 0.0 1.0 0.00 0.00 0.00 99 1014.9
20260903113524 72 200 0.0 0.0 0.00 0.00 0.00 99 1014.9
20260903113020 70 200 0.0 0.0 0.00 0.00 0.00 99 1014.8
20260903112516 70 200 0.0 0.0 0.00 0.00 0.00 99 1014.6
20260903112016 70 200 0.0 0.0 0.00 0.00 0.00 99 1014.6
20260903111515 70 200 0.0 0.0 0.00 0.00 0.00 99 1014.8
20260903111011 70 200 0.0 0.0 0.00 0.00 0.00 99 1014.6
20260903110507 70 200 0.0 1.0 0.00 0.00 0.00 99 1014.5
20260903110001 70 200 0.0 0.0 0.00 0.00 0.00 99 1014.5
20260903105455 70 200 0.0 0.0 0.00 0.00 0.00 99 1014.4
20260903104950 70 200 0.0 0.0 0.00 0.00 0.00 99 1014.5
20260903104450 70 200 0.0 0.0 0.00 0.00 0.00 99 1014.4
20260903103947 70 200 0.0 0.0 0.00 0.00 0.00 99 1014.5
20260903103442 70 200 0.0 0.0 0.00 0.00 0.00 99 1014.2
20260903102938 70 200 0.0 0.0 0.00 0.00 0.00 99 1014.4
20260903102433 70 200 0.0 1.0 0.00 0.00 0.00 99 1014.3
20260903101932 70 200 0.0 0.0 0.00 0.00 0.00 99 1014.2
20260903101427 70 200 0.0 0.0 0.00 0.00 0.00 99 1014.5
20260903100922 70 200 0.0 0.0 0.00 0.00 0.00 99 1014.1
20260903100417 70 200 0.0 0.0 0.00 0.00 0.00 99 1014.1
20260903095914 70 200 0.0 0.0 0.00 0.00 0.00 99 1014.0
20260903095409 70 200 0.0 0.0 0.00 0.00 0.00 99 1014.1
20260903094903 70 199 0.0 0.0 0.00 0.00 0.00 99 1014.0
20260903094357 70 199 0.0 0.0 0.00 0.00 0.00 99 1014.1
20260903093853 70 199 0.0 0.0 0.00 0.00 0.00 99 1013.9
20260903093349 70 199 0.0 0.0 0.00 0.00 0.00 99 1013.9
20260903092844 70 199 0.0 0.0 0.00 0.00 0.00 99 1013.6
20260903092338 70 199 0.0 0.0 0.00 0.00 0.00 99 1013.9
20260903091837 70 199 0.0 0.0 0.00 0.00 0.00 99 1013.9
20260903091336 71 199 0.0 0.0 0.00 0.00 0.00 99 1014.0
20260903090832 71 199 0.0 0.0 0.00 0.00 0.00 99 1014.0
20260903090327 71 199 0.0 0.0 0.00 0.00 0.00 99 1014.1
20260903085825 71 199 0.0 0.0 0.00 0.00 0.00 99 1014.0
20260903085324 71 199 0.0 0.0 0.00 0.00 0.00 99 1014.0
20260903084823 71 199 0.0 0.0 0.00 0.00 0.00 99 1013.8
20260903084323 71 199 0.0 0.0 0.00 0.00 0.00 99 1013.9
20260903083818 71 199 0.0 0.0 0.00 0.00 0.00 99 1013.8
20260903083314 71 199 0.0 0.0 0.00 0.00 0.00 99 1013.3
20260903082812 71 199 0.0 0.0 0.00 0.00 0.00 99 1013.7
20260903082308 71 199 0.0 0.0 0.00 0.00 0.00 99 1013.8
20260903081803 71 199 0.0 0.0 0.00 0.00 0.00 99 1013.7
20260903081258 71 199 0.0 0.0 0.00 0.00 0.00 99 1013.6
20260903080755 71 199 0.0 0.0 0.00 0.00 0.00 99 1013.3
20260903080252 71 199 0.0 0.0 0.00 0.00 0.00 99 1013.7
20260903075751 71 199 0.0 0.0 0.00 0.00 0.00 99 1013.4
20260903075247 72 199 0.0 0.0 0.00 0.00 0.00 99 1013.3
20260903074745 72 199 0.0 0.0 0.00 0.00 0.00 99 1013.6
20260903074240 71 199 1.0 1.0 0.00 0.00 0.00 99 1013.6
20260903073736 71 202 0.0 0.0 0.00 0.00 0.00 99 1013.4
20260903073231 71 202 0.0 0.0 0.00 0.00 0.00 99 1013.3
20260903072727 71 202 0.0 0.0 0.00 0.00 0.00 99 1013.2
20260903072218 71 202 0.0 0.0 0.00 0.00 0.00 99 1013.4
20260903071714 71 202 0.0 0.0 0.00 0.00 0.00 99 1013.3
20260903071209 71 202 0.0 0.0 0.00 0.00 0.00 99 1013.4
20260903070709 71 202 0.0 1.0 0.00 0.00 0.00 99 1013.6
20260903070205 72 202 0.0 0.0 0.00 0.00 0.00 99 1013.3
20260903065659 72 202 0.0 0.0 0.00 0.00 0.00 99 1013.6
20260903065153 72 202 0.0 0.0 0.00 0.00 0.00 99 1013.6
20260903064652 72 202 0.0 0.0 0.00 0.00 0.00 99 1013.6
20260903064148 72 202 0.0 0.0 0.00 0.00 0.00 99 1013.6
20260903063644 72 251 0.0 0.0 0.00 0.00 0.00 99 1013.7
20260903063138 72 251 0.0 0.0 0.00 0.00 0.00 99 1013.4
20260903062634 72 251 0.0 0.0 0.00 0.00 0.00 99 1013.3
20260903062129 72 251 0.0 0.0 0.00 0.00 0.00 99 1013.3
20260903061624 72 251 0.0 0.0 0.00 0.00 0.00 99 1013.3
20260903061124 72 251 0.0 0.0 0.00 0.00 0.00 99 1013.4
20260903060619 73 251 0.0 0.0 0.00 0.00 0.00 99 1013.4
20260903060114 72 253 0.0 1.0 0.00 0.00 0.00 99 1013.4
20260903055612 72 249 0.0 0.0 0.00 0.00 0.00 99 1013.4
20260903055110 72 249 0.0 0.0 0.00 0.00 0.00 99 1013.1
20260903054605 72 249 0.0 0.0 0.00 0.00 0.00 98 1013.3
20260903054101 72 249 0.0 0.0 0.00 0.00 0.00 98 1013.3
20260903053556 72 249 0.0 0.0 0.00 0.00 0.00 98 1013.2
20260903053053 72 249 0.0 0.0 0.00 0.00 0.00 98 1013.4
20260903052548 72 249 0.0 0.0 0.00 0.00 0.00 98 1013.4
20260903052044 72 249 0.0 0.0 0.00 0.00 0.00 98 1013.3
20260903051543 72 249 0.0 0.0 0.00 0.00 0.00 98 1013.2
20260903051039 73 249 0.0 0.0 0.00 0.00 0.00 98 1013.3
20260903050538 73 249 0.0 0.0 0.00 0.00 0.00 98 1013.3
20260903050034 73 249 0.0 0.0 0.00 0.00 0.00 98 1013.3
20260903045533 73 249 0.0 0.0 0.00 0.00 0.00 98 1013.2
20260903045030 73 249 0.0 0.0 0.00 0.00 0.00 98 1013.3
20260903044526 73 249 0.0 0.0 0.00 0.00 0.00 98 1013.4
20260903044021 73 249 0.0 0.0 0.00 0.00 0.00 98 1013.3
20260903043516 73 249 0.0 0.0 0.00 0.00 0.00 98 1013.4
20260903043016 73 249 0.0 0.0 0.00 0.00 0.00 98 1013.3
20260903042511 73 226 0.0 0.0 0.00 0.00 0.00 98 1013.6
20260903042006 73 228 0.0 0.0 0.00 0.00 0.00 98 1013.7
20260903041503 73 228 0.0 0.0 0.00 0.00 0.00 98 1013.7
20260903040958 73 228 0.0 0.0 0.00 0.00 0.00 97 1013.7
20260903040456 73 228 0.0 0.0 0.00 0.00 0.00 97 1013.8
20260903035953 73 228 0.0 0.0 0.00 0.00 0.00 97 1013.7
20260903035448 73 228 0.0 0.0 0.00 0.00 0.00 97 1013.7
20260903034944 74 228 0.0 1.0 0.00 0.00 0.00 97 1013.8
20260903034438 74 229 0.0 0.0 0.00 0.00 0.00 97 1013.6
20260903033933 74 229 0.0 0.0 0.00 0.00 0.00 97 1013.8
20260903033428 74 229 0.0 0.0 0.00 0.00 0.00 97 1013.9
20260903032923 74 229 0.0 0.0 0.00 0.00 0.00 97 1013.8
20260903032419 75 228 0.0 1.0 0.00 0.00 0.00 97 1013.8
20260903031914 75 227 0.0 0.0 0.00 0.00 0.00 97 1013.9
20260903031413 75 228 0.0 0.0 0.00 0.00 0.00 97 1014.0
20260903030909 75 227 0.0 0.0 0.00 0.00 0.00 96 1014.3
20260903030405 75 207 0.0 0.0 0.00 0.00 0.00 96 1014.2
20260903025900 75 207 0.0 0.0 0.00 0.00 0.00 96 1013.9
20260903025356 75 207 0.0 0.0 0.00 0.00 0.00 96 1014.1
20260903024856 75 207 0.0 0.0 0.00 0.00 0.00 96 1013.9
20260903024350 75 207 0.0 0.0 0.00 0.00 0.00 96 1014.1
20260903023845 75 207 0.0 0.0 0.00 0.00 0.00 95 1014.0
20260903023341 75 207 0.0 0.0 0.00 0.00 0.00 95 1014.1
20260903022836 76 207 0.0 0.0 0.00 0.00 0.00 95 1014.1
20260903022335 76 207 0.0 0.0 0.00 0.00 0.00 95 1014.2
20260903021828 76 207 0.0 0.0 0.00 0.00 0.00 95 1014.5
20260903021324 76 207 0.0 0.0 0.00 0.00 0.00 95 1014.1
20260903020823 76 207 0.0 0.0 0.00 0.00 0.00 95 1014.4
20260903020319 76 207 0.0 0.0 0.00 0.00 0.00 95 1014.3
20260903015814 76 207 0.0 0.0 0.00 0.00 0.00 95 1014.2
20260903015309 76 209 0.0 1.0 0.00 0.00 0.00 95 1014.4
20260903014805 77 210 0.0 0.0 0.00 0.00 0.00 95 1014.2
20260903014304 77 210 0.0 0.0 0.00 0.00 0.00 95 1014.1
20260903013759 77 209 0.0 0.0 0.00 0.00 0.00 94 1014.1
20260903013258 77 209 0.0 0.0 0.00 0.00 0.00 94 1013.8
20260903012757 77 210 0.0 0.0 0.00 0.00 0.00 94 1014.0
20260903012251 77 209 0.0 0.0 0.00 0.00 0.00 94 1014.0
20260903011746 77 210 0.0 0.0 0.00 0.00 0.00 94 1013.9
20260903011245 78 210 0.0 0.0 0.00 0.00 0.00 93 1013.9
20260903010741 78 210 0.0 0.0 0.00 0.00 0.00 93 1013.9
20260903010236 78 209 0.0 0.0 0.00 0.00 0.00 93 1013.9
20260903005735 78 210 0.0 0.0 0.00 0.00 0.00 92 1013.6
20260903005230 78 210 0.0 0.0 0.00 0.00 0.00 92 1013.7
20260903004725 78 210 0.0 0.0 0.00 0.00 0.00 92 1013.6
20260903004220 79 210 0.0 0.0 0.00 0.00 0.00 92 1013.6
20260903003716 79 210 0.0 0.0 0.00 0.00 0.00 91 1013.4
20260903003211 79 210 0.0 0.0 0.00 0.00 0.00 91 1013.6
20260903002706 79 209 0.0 0.0 0.00 0.00 0.00 91 1013.7
20260903002200 80 209 0.0 0.0 0.00 0.00 0.00 89 1013.6
20260903001655 80 210 0.0 0.0 0.00 0.00 0.00 89 1013.3
20260903001149 80 209 0.0 0.0 0.00 0.00 0.00 89 1013.3
20260903000645 81 210 0.0 0.0 0.00 0.00 0.00 89 1013.3
20260903000143 81 209 0.0 0.0 0.00 0.00 0.00 87 1013.2
20260902235637 81 209 0.0 0.0 0.00 0.00 0.00 86 1013.2
20260902235132 82 209 0.0 0.0 0.00 0.00 0.00 85 1013.3
20260902234626 82 209 0.0 0.0 0.00 0.00 0.00 84 1013.2
20260902234124 83 209 0.0 0.0 0.00 0.00 0.00 83 1013.1
20260902233620 83 209 0.0 0.0 0.00 0.00 0.00 82 1013.6
20260902233114 84 209 0.0 0.0 0.00 0.00 0.00 81 1013.3
20260902232614 85 209 0.0 0.0 0.00 0.00 0.00 81 1013.1
20260902232108 85 209 0.0 0.0 0.00 0.00 0.00 80 1013.2
20260902231608 86 209 0.0 0.0 0.00 0.00 0.00 79 1013.2
20260902231107 86 209 0.0 0.0 0.00 0.00 0.00 77 1013.1
20260902230602 87 209 0.0 0.0 0.00 0.00 0.00 75 1013.2
20260902230101 87 209 0.0 0.0 0.00 0.00 0.00 74 1013.2
20260902225556 88 209 0.0 0.0 0.00 0.00 0.00 72 1013.2
20260902225056 88 209 0.0 0.0 0.00 0.00 0.00 71 1013.1
20260902224554 89 209 0.0 0.0 0.00 0.00 0.00 68 1013.0
20260902224051 89 209 0.0 0.0 0.00 0.00 0.00 66 1013.0
20260902223547 89 209 0.0 0.0 0.00 0.00 0.00 64 1013.1
20260902223046 90 209 0.0 0.0 0.00 0.00 0.00 61 1013.1
20260902222545 90 209 0.0 0.0 0.00 0.00 0.00 60 1012.9
20260902222044 90 209 0.0 1.0 0.00 0.00 0.00 56 1013.2
20260902221538 91 209 0.0 0.0 0.00 0.00 0.00 56 1013.2
20260902221033 91 209 0.0 1.0 0.00 0.00 0.00 54 1013.1
20260902220529 91 209 0.0 1.0 0.00 0.00 0.00 53 1013.4
20260902220023 91 211 0.0 0.0 0.00 0.00 0.00 52 1013.1
20260902215519 92 213 0.0 1.0 0.00 0.00 0.00 56 1013.2
20260902215015 92 241 0.0 0.0 0.00 0.00 0.00 54 1013.2
20260902214514 92 245 0.0 0.0 0.00 0.00 0.00 56 1013.4
20260902214013 92 213 0.0 0.0 0.00 0.00 0.00 51 1013.3
20260902213509 92 224 0.0 0.0 0.00 0.00 0.00 55 1013.4